Time,TemperatureF,DewpointF,PressureIn,WindDirection,WindDirectionDegrees,WindSpeedMPH,WindSpeedGustMPH,Humidity,HourlyPrecipIn,Conditions,Clouds,dailyrainin,SolarRadiationWatts/m^2,SoftwareType,DateUTC
2014-01-26 00:00:00,-5.0,-14.0,-100.00,West,270,1.0,-999.0,63,-99.99,,,-99.99,0.000000,,2014-01-26 06:00:00,
2014-01-26 00:43:00,-5.0,-14.0,-100.00,West,270,1.0,-999.0,63,-99.99,,,-99.99,0.000000,,2014-01-26 06:43:00,
2014-01-26 00:52:00,-5.0,-14.0,-100.00,West,270,1.0,-999.0,63,-99.99,,,-99.99,0.000000,,2014-01-26 06:52:00,
2014-01-26 03:00:00,-3.0,-13.0,-100.00,WSW,247,4.0,-999.0,60,-99.99,,,-99.99,0.000000,,2014-01-26 09:00:00,
2014-01-26 03:43:00,-3.0,-13.0,-100.00,WSW,247,4.0,-999.0,60,-99.99,,,-99.99,0.000000,,2014-01-26 09:43:00,
2014-01-26 03:53:00,-3.0,-13.0,-100.00,WSW,247,4.0,-999.0,60,-99.99,,,-99.99,0.000000,,2014-01-26 09:53:00,
2014-01-26 06:00:00,-1.0,-7.0,-100.00,WNW,292,3.0,-999.0,75,-99.99,,,-99.99,0.000000,,2014-01-26 12:00:00,
2014-01-26 06:42:00,-1.0,-7.0,-100.00,WNW,292,3.0,-999.0,75,-99.99,,,-99.99,0.000000,,2014-01-26 12:42:00,
2014-01-26 06:52:00,-1.0,-7.0,-100.00,WNW,292,3.0,-999.0,75,-99.99,,,-99.99,0.000000,,2014-01-26 12:52:00,
2014-01-26 09:00:00,1.0,-4.0,-100.00,NNE,22,2.0,-999.0,80,-99.99,,,-99.99,24.360001,,2014-01-26 15:00:00,
2014-01-26 09:43:00,1.0,-4.0,-100.00,NNE,22,2.0,-999.0,80,-99.99,,,-99.99,24.360001,,2014-01-26 15:43:00,
2014-01-26 09:53:00,1.0,-4.0,-100.00,NNE,22,2.0,-999.0,80,-99.99,,,-99.99,24.360001,,2014-01-26 15:53:00,
2014-01-26 12:00:00,5.0,0.0,-100.00,North,0,3.0,-999.0,78,-99.99,,,-99.99,182.119995,,2014-01-26 18:00:00,
2014-01-26 12:42:00,5.0,0.0,-100.00,North,0,3.0,-999.0,78,-99.99,,,-99.99,182.119995,,2014-01-26 18:42:00,
2014-01-26 12:53:00,5.0,0.0,-100.00,North,0,3.0,-999.0,78,-99.99,,,-99.99,182.119995,,2014-01-26 18:53:00,
2014-01-26 15:00:00,5.0,0.0,-100.00,West,270,6.0,-999.0,77,-99.99,,,-99.99,134.559998,,2014-01-26 21:00:00,
2014-01-26 15:43:00,5.0,0.0,-100.00,West,270,6.0,-999.0,77,-99.99,,,-99.99,134.559998,,2014-01-26 21:43:00,
2014-01-26 15:54:00,5.0,0.0,-100.00,West,270,6.0,-999.0,77,-99.99,,,-99.99,134.559998,,2014-01-26 21:54:00,
2014-01-26 18:00:00,7.0,2.0,-100.00,WNW,292,8.0,-999.0,79,-99.99,,,-99.99,0.000000,,2014-01-27 00:00:00,
2014-01-26 18:42:00,7.0,2.0,-100.00,WNW,292,8.0,-999.0,79,-99.99,,,-99.99,0.000000,,2014-01-27 00:42:00,
2014-01-26 18:52:00,7.0,2.0,-100.00,WNW,292,8.0,-999.0,79,-99.99,,,-99.99,0.000000,,2014-01-27 00:52:00,
2014-01-26 21:00:00,5.0,-2.0,-100.00,NW,315,13.0,-999.0,71,-99.99,,,-99.99,0.000000,,2014-01-27 03:00:00,
2014-01-26 21:43:00,5.0,-2.0,-100.00,NW,315,13.0,-999.0,71,-99.99,,,-99.99,0.000000,,2014-01-27 03:43:00,
2014-01-26 21:53:00,5.0,-2.0,-100.00,NW,315,13.0,-999.0,71,-99.99,,,-99.99,0.000000,,2014-01-27 03:53:00,